Location: Taukkyan
(23.1052°N, 94.0030°E)
Time: 11:47:26
(UTC+00:00)

VEP-3 - Pass Details

Date: 06 July 2020
Orbit: 1019 x 33724 km, 23.7° (Epoch: 14 August)

Event Time Altitude Azimuth Distance (km) Brightness Sun altitude
Rises 16:12:12 0° 278° (W) 3,786 6.0 -38.6°
Reaches altitude 10° 16:14:03 10° 277° (W) 2,984 5.3 -38.8°
Enters shadow 16:17:59 53° 267° (W) 1,767 3.7 -39.2°
Exits shadow 16:33:55 22° 106° (ESE) 6,794 6.4 -40.8°
Drops below altitude 10° 16:46:33 10° 106° (ESE) 11,206 7.6 -41.9°
Sets 17:14:56 0° 108° (ESE) 18,876 8.9 -43.6°
